Regional Weather Roundup
Issued by NWS State College, PA

Home | Current Version | Previous Version | Text Only | Print | Product List | Glossary On
Versions: 1 2 3 4 5 6 7 8 9 10 11 12 13 14 15 16 17 18 19 20 21 22 23 24 25 26 27 28 29 30 31 32 33 34 35 36 37 38 39 40 41 42 43 44 45 46 47 48 49 50
000
ASUS41 KCTP 011510
RWRCTP

REGIONAL WEATHER ROUNDUP
NATIONAL WEATHER SERVICE STATE COLLEGE PA
1100 AM EDT WED JUL 01 2015

Note: "fair" indicates few or no clouds below 12,000 feet with no
significant weather and/or obstructions to visibility.

* = STATION THAT DOES NOT REPORT PRECIPITATION /E.G. RAIN...SNOW...ETC/
    THUNDER OR FOG.

PAZ002>004-007>009-013>016-020>023-029>032-011600-
WESTERN PENNSYLVANIA

CITY           SKY/WX    TMP DP  RH WIND       PRES   REMARKS
ERIE           CLOUDY    65  58  78 W7        29.85R
MEADVILLE      CLOUDY    64  57  78 W7        29.88R
FRANKLIN*      CLOUDY    64  59  82 W9        29.88R
NEW CASTLE     PTSUNNY   69  63  81 W9        29.89R
BEAVER COUNTY  CLOUDY    66  61  82 W10       29.90R
BUTLER*        CLOUDY    66  63  88 W12       29.91R
PITTSBURGH INT CLOUDY    67  60  78 W7        29.90R
PITTSBURGH     CLOUDY    65  57  75 SW12      29.90R
INDIANA*       CLOUDY    64  61  88 W9        29.93R FOG
LATROBE        CLOUDY    66  63  88 SW17      29.91R FOG
WASHINGTON CO* NOT AVBL
$$

PAZ004>006-010>012-017>019-024>028-033>037-041-042-045-046-049>053-011600-
CENTRAL PENNSYLVANIA

CITY           SKY/WX    TMP DP  RH WIND       PRES   REMARKS
BRADFORD       PTSUNNY   65  59  81 W13G22    29.84R
DUBOIS         CLOUDY    64  60  87 SW13      29.86R FOG
CLEARFIELD     CLOUDY    64  60  87 SW7       29.86R
JOHNSTOWN      CLOUDY    61  56  83 W13G22    29.91R
ALTOONA        CLOUDY    68  58  70 W12       29.89R
STATE COLLEGE  CLOUDY    68  61  77 W15       29.85R
WILLIAMSPORT   MOSUNNY   72  61  68 W12G17    29.80R
SELINSGROVE    CLOUDY    74  62  66 VRB5      29.83R
FT INDIANTOWN  SUNNY     75  62  64 SW12      29.82R
CAPITAL CITY   SUNNY     76  61  59 W8G16     29.82S
HARRISBURG     MOSUNNY   76  62  62 W3        29.82R
YORK           SUNNY     75  63  66 SW7       29.83S
$$

PAZ038>040-043-044-047-048-054-055-060>062-067>071-011600-
EASTERN PENNSYLVANIA

CITY           SKY/WX    TMP DP  RH WIND       PRES   REMARKS
SCRANTON       CLOUDY    69  60  73 SW13      29.82R
MOUNT POCONO   PTSUNNY   65  58  78 W13       29.84S
ALLENTOWN      CLOUDY    74  63  68 W10       29.81S
QUAKERTOWN*    MOSUNNY   75  64  69 W6        29.83S
READING        MOSUNNY   76  63  64 VRB6      29.81R
LANCASTER      SUNNY     75  62  64 W12       29.82S
COATESVILLE    SUNNY     73  64  73 W6        29.85R
POTTSTOWN      SUNNY     74  63  68 W5        29.84S
BLUE BELL      MOSUNNY   77  66  69 SW6       29.82S
DOYLESTOWN     MOSUNNY   75  64  68 SW6       29.82S
WILLOW GROVE   NOT AVBL
NORTH PHILA    SUNNY     79  64  60 W8        29.83F
PHILADELPHIA   MOSUNNY   78  64  61 SW9       29.83S
$$



USA.gov is the U.S. government's official web portal to all federal, state and local government web resources and services.